Home   Weather   Langesund   Past weeks

Flag for Norway Past Weather in Langesund, Norway — Yesterday and Last 2 Weeks

Now
60 °F

Cool.


Feels Like: 60 °F
Forecast: 46 / 62 °F
Wind: 6 mph from West

Location: Jomfruland Fyr

Current Time: Sep 26, 2016 at 10:48:24 AM

Latest Report: Sep 26, 2016 at 10:00 AM


Visibility: N/A

Pressure: 30.09 "Hg

Humidity: 87%

Dew Point: 56 °F

Location of LangesundLocation

Past Weather in Langesund — Graph

°F

Langesund Temperature Yesterday

Maximum temperature yesterday: 65 °F (at 2:00 PM)
Minimum temperature yesterday: 60 °F (at 7:00 AM)
Average temperature yesterday: 62 °F

High & Low Weather Summary for the Past Weeks

 TemperatureHumidityPressure
High69 °F (Sep 14, 12:00 PM)97% (Sep 14, 7:00 AM)30.26 "Hg (Sep 14, 7:00 AM)
Low50 °F (Sep 24, 4:00 AM)42% (Sep 11, 4:00 PM)29.72 "Hg (Sep 11, 9:00 AM)
Average60 °F81%30.12 "Hg
* Reported Sep 11 9:00 AM — Sep 26 9:00 AM, Langesund, Weather by CustomWeather, © 2016

Note: Actual official high and low records may vary slightly from our data, if they occured in-between our weather recording intervals... More about our weather records

Advertising

Langesund Weather History for the Previous 24 Hours

Scroll right to see more
 ConditionsComfort  
Time TempWeatherWind HumidityBarometerVisibility
9:00 AM
Mon, Sep 26
60 °FCool.8 mph88%30.06 "HgN/A
8:00 AM61 °FCool.8 mph91%30.05 "HgN/A
7:00 AM62 °FCool.7 mph91%30.03 "HgN/A
6:00 AM61 °FCool.7 mph91%30.02 "HgN/A
5:00 AM60 °FCool.9 mph89%30.02 "HgN/A
4:00 AM62 °FCool.9 mph85%30.02 "HgN/A
3:00 AM62 °FCool.10 mph84%30.03 "HgN/A
2:00 AM61 °FCool.8 mph84%30.03 "HgN/A
1:00 AM62 °FCool.9 mph82%30.03 "HgN/A
12:00 AM62 °FCool.9 mph79%30.03 "HgN/A
11:00 PM
Sun, Sep 25
62 °FCool.8 mph80%30.04 "HgN/A
10:00 PM62 °FCool.8 mph82%30.05 "HgN/A
9:00 PM62 °FCool.7 mph82%30.05 "HgN/A
8:00 PM62 °FCool.7 mph84%30.05 "HgN/A
7:00 PM62 °FCool.6 mph88%30.05 "HgN/A
6:00 PM63 °FMild.6 mph86%30.05 "HgN/A
5:00 PM64 °FMild.5 mph83%30.05 "HgN/A
4:00 PM63 °FMild.3 mph81%30.06 "HgN/A
3:00 PM65 °FMild.3 mph79%30.07 "HgN/A
2:00 PM65 °FMild.3 mph78%30.08 "HgN/A
1:00 PM65 °FMild.3 mph80%30.08 "HgN/A
12:00 PM64 °FMild.5 mph81%30.08 "HgN/A
11:00 AM63 °FMild.3 mph83%30.08 "HgN/A
10:00 AM62 °FCool.5 mph85%30.07 "HgN/A
Weather by CustomWeather, © 2016

See weather overviewHow to use our weather pages